N923MD KSAN-KSMO

Flight info

Callsign N923MD
Flight time 0h 44m
Altitude 8000
Route OCN V23 SLI ELMOO V186 DARTS
Aircraft BE58/L-SDFGRY/C

Departure

Time 2026-04-25 02:42
Airport San Diego International Airport (KSAN)

Arrival

Time 2026-04-25 03:26
Airport Santa Monica Municipal Airport (KSMO)
Time Latitude Longitude Altitude Speed Heading
2026-04-25 02:19 32.73336 -117.17828 19 ft 0 kts 20°
2026-04-25 02:36 32.73337 -117.17827 19 ft 2 kts 14°
2026-04-25 02:36 32.73353 -117.17848 12 ft 1 kts 288°
2026-04-25 02:39 32.73353 -117.17850 15 ft 2 kts 288°
2026-04-25 02:39 32.73361 -117.17904 15 ft 8 kts 262°
2026-04-25 02:39 32.73336 -117.17949 17 ft 6 kts 213°
2026-04-25 02:39 32.73281 -117.17973 16 ft 11 kts 195°
2026-04-25 02:40 32.73216 -117.17920 13 ft 15 kts 103°
2026-04-25 02:40 32.73190 -117.17810 14 ft 13 kts 105°
2026-04-25 02:40 32.73166 -117.17712 15 ft 11 kts 106°
2026-04-25 02:40 32.73145 -117.17624 14 ft 11 kts 106°
2026-04-25 02:41 32.73100 -117.17552 14 ft 12 kts 143°
2026-04-25 02:41 32.73027 -117.17538 15 ft 12 kts 231°
2026-04-25 02:41 32.73035 -117.17636 13 ft 13 kts 288°
2026-04-25 02:41 32.73081 -117.17827 12 ft 59 kts 286°
2026-04-25 02:42 32.73277 -117.18620 116 ft 123 kts 283°
2026-04-25 02:42 32.73568 -117.19578 766 ft 125 kts 297°
2026-04-25 02:42 32.74232 -117.20308 1308 ft 136 kts 323°
2026-04-25 02:42 32.75060 -117.20926 1872 ft 144 kts 326°
2026-04-25 02:43 32.75935 -117.21555 2417 ft 148 kts 325°
2026-04-25 02:43 32.76799 -117.22195 2998 ft 146 kts 324°
2026-04-25 02:43 32.77637 -117.22875 3594 ft 147 kts 315°
2026-04-25 02:43 32.78308 -117.23825 4033 ft 154 kts 304°
2026-04-25 02:44 32.78932 -117.24871 4474 ft 158 kts 302°
2026-04-25 02:44 32.79547 -117.25961 4939 ft 160 kts 301°
2026-04-25 02:44 32.80207 -117.27134 5011 ft 179 kts 301°
2026-04-25 02:44 32.80899 -117.28391 5018 ft 184 kts 301°
2026-04-25 02:45 32.81596 -117.29662 5020 ft 189 kts 301°
2026-04-25 02:45 32.82324 -117.30997 5088 ft 192 kts 301°
2026-04-25 02:45 32.83049 -117.32330 5241 ft 191 kts 301°
2026-04-25 02:45 32.83756 -117.33627 5460 ft 187 kts 301°
2026-04-25 02:46 32.84463 -117.34909 5707 ft 184 kts 301°
2026-04-25 02:46 32.85169 -117.36182 5955 ft 184 kts 301°
2026-04-25 02:46 32.85893 -117.37477 6004 ft 193 kts 301°
2026-04-25 02:46 32.86649 -117.38827 6010 ft 198 kts 301°
2026-04-25 02:47 32.87416 -117.40196 6011 ft 199 kts 301°
2026-04-25 02:47 32.88050 -117.41632 6001 ft 195 kts 281°
2026-04-25 02:47 32.87885 -117.43188 5989 ft 193 kts 244°
2026-04-25 02:47 32.86920 -117.44274 5991 ft 197 kts 207°
2026-04-25 02:48 32.85574 -117.44422 5996 ft 201 kts 170°
2026-04-25 02:48 32.84396 -117.43551 5996 ft 204 kts 133°
2026-04-25 02:48 32.83823 -117.42020 5997 ft 206 kts 98°
2026-04-25 02:48 32.84091 -117.40371 5994 ft 205 kts 59°
2026-04-25 02:49 32.85124 -117.39263 5991 ft 200 kts 20°
2026-04-25 02:49 32.86449 -117.39067 5999 ft 194 kts 353°
2026-04-25 02:49 32.87790 -117.39191 6003 ft 193 kts 351°
2026-04-25 02:49 32.89133 -117.39311 6006 ft 194 kts 352°
2026-04-25 02:50 32.90476 -117.39408 6006 ft 192 kts 353°
2026-04-25 02:50 32.91819 -117.39502 6005 ft 194 kts 353°
2026-04-25 02:50 32.93170 -117.39596 6005 ft 195 kts 353°
2026-04-25 02:50 32.94528 -117.39691 6003 ft 196 kts 353°
2026-04-25 02:51 32.95891 -117.39787 6003 ft 196 kts 353°
2026-04-25 02:51 32.97253 -117.39882 6001 ft 196 kts 353°
2026-04-25 02:51 32.98613 -117.39978 5999 ft 196 kts 353°
2026-04-25 02:51 32.99976 -117.40074 5998 ft 196 kts 353°
2026-04-25 02:52 33.01336 -117.40170 5997 ft 196 kts 353°
2026-04-25 02:52 33.02681 -117.40264 5996 ft 196 kts 353°
2026-04-25 02:52 33.04042 -117.40360 5995 ft 195 kts 353°
2026-04-25 02:52 33.05400 -117.40455 5997 ft 196 kts 353°
2026-04-25 02:53 33.06761 -117.40551 5990 ft 196 kts 353°
2026-04-25 02:53 33.08128 -117.40648 5995 ft 197 kts 353°
2026-04-25 02:53 33.09494 -117.40744 5996 ft 197 kts 353°
2026-04-25 02:53 33.10861 -117.40840 5996 ft 197 kts 353°
2026-04-25 02:54 33.12228 -117.40936 5988 ft 197 kts 353°
2026-04-25 02:54 33.13595 -117.41032 5988 ft 197 kts 353°
2026-04-25 02:54 33.14948 -117.41128 5988 ft 197 kts 353°
2026-04-25 02:54 33.16319 -117.41225 5988 ft 197 kts 353°
2026-04-25 02:55 33.17688 -117.41321 5988 ft 197 kts 353°
2026-04-25 02:55 33.19059 -117.41418 5988 ft 197 kts 353°
2026-04-25 02:55 33.20426 -117.41516 5988 ft 197 kts 353°
2026-04-25 02:55 33.21793 -117.41612 5988 ft 197 kts 353°
2026-04-25 02:56 33.23160 -117.41729 5986 ft 195 kts 347°
2026-04-25 02:56 33.24407 -117.42295 5985 ft 190 kts 324°
2026-04-25 02:56 33.25394 -117.43314 5987 ft 187 kts 311°
2026-04-25 02:56 33.26309 -117.44390 6022 ft 186 kts 312°
2026-04-25 02:57 33.27241 -117.45469 6027 ft 187 kts 312°
2026-04-25 02:57 33.28178 -117.46558 6026 ft 188 kts 312°
2026-04-25 02:57 33.29114 -117.47647 6024 ft 188 kts 312°
2026-04-25 02:57 33.30052 -117.48741 6024 ft 188 kts 313°
2026-04-25 02:58 33.30991 -117.49835 6023 ft 189 kts 312°
2026-04-25 02:58 33.31931 -117.50930 6022 ft 189 kts 312°
2026-04-25 02:58 33.32872 -117.52028 6020 ft 189 kts 312°
2026-04-25 02:58 33.33814 -117.53127 6020 ft 189 kts 312°
2026-04-25 02:59 33.34755 -117.54225 6019 ft 189 kts 312°
2026-04-25 02:59 33.35696 -117.55324 6018 ft 189 kts 312°
2026-04-25 02:59 33.36641 -117.56426 6017 ft 189 kts 312°
2026-04-25 02:59 33.37583 -117.57526 6017 ft 189 kts 312°
2026-04-25 03:00 33.38525 -117.58627 6015 ft 189 kts 312°
2026-04-25 03:00 33.39455 -117.59714 6013 ft 189 kts 312°
2026-04-25 03:00 33.40401 -117.60819 6010 ft 190 kts 312°
2026-04-25 03:00 33.41345 -117.61924 6013 ft 190 kts 312°
2026-04-25 03:01 33.42288 -117.63027 6013 ft 189 kts 312°
2026-04-25 03:01 33.43235 -117.64135 6011 ft 190 kts 313°
2026-04-25 03:01 33.44180 -117.65242 6008 ft 190 kts 312°
2026-04-25 03:01 33.45122 -117.66345 6004 ft 189 kts 312°
2026-04-25 03:02 33.46067 -117.67452 6007 ft 190 kts 312°
2026-04-25 03:02 33.47000 -117.68544 6007 ft 190 kts 312°
2026-04-25 03:02 33.48010 -117.69562 6006 ft 192 kts 327°
2026-04-25 03:02 33.49296 -117.70049 6007 ft 196 kts 349°
2026-04-25 03:03 33.50653 -117.70264 6009 ft 197 kts 349°
2026-04-25 03:03 33.52010 -117.70489 6011 ft 197 kts 349°
2026-04-25 03:03 33.53366 -117.70719 6014 ft 197 kts 349°
2026-04-25 03:03 33.54725 -117.70947 6014 ft 196 kts 349°
2026-04-25 03:04 33.56079 -117.71174 6016 ft 196 kts 349°
2026-04-25 03:04 33.57418 -117.71398 6017 ft 197 kts 349°
2026-04-25 03:04 33.58776 -117.71626 6018 ft 197 kts 349°
2026-04-25 03:05 33.61486 -117.72081 6021 ft 197 kts 349°
2026-04-25 03:05 33.62846 -117.72309 6021 ft 197 kts 349°
2026-04-25 03:05 33.64206 -117.72537 6022 ft 197 kts 349°
2026-04-25 03:05 33.65562 -117.72766 6022 ft 197 kts 349°
2026-04-25 03:06 33.66919 -117.72994 6023 ft 197 kts 349°
2026-04-25 03:06 33.68221 -117.73382 6021 ft 194 kts 335°
2026-04-25 03:06 33.69474 -117.73994 6025 ft 194 kts 335°
2026-04-25 03:06 33.70734 -117.74583 6026 ft 194 kts 335°
2026-04-25 03:07 33.71996 -117.75174 6027 ft 194 kts 335°
2026-04-25 03:07 33.73253 -117.75765 6027 ft 195 kts 336°
2026-04-25 03:07 33.74519 -117.76361 6027 ft 195 kts 335°
2026-04-25 03:07 33.75358 -117.76756 5995 ft 195 kts 335°
2026-04-25 03:08 33.76621 -117.77351 5997 ft 195 kts 336°
2026-04-25 03:08 33.77895 -117.77938 5995 ft 196 kts 340°
2026-04-25 03:08 33.79259 -117.78115 5994 ft 199 kts 357°
2026-04-25 03:08 33.80646 -117.78129 5995 ft 199 kts 356°
2026-04-25 03:09 33.82032 -117.78164 5994 ft 199 kts 356°
2026-04-25 03:09 33.83415 -117.78196 5995 ft 199 kts 356°
2026-04-25 03:09 33.84796 -117.78224 5993 ft 198 kts 356°
2026-04-25 03:09 33.86172 -117.78253 5994 ft 198 kts 356°
2026-04-25 03:10 33.87547 -117.78281 5993 ft 198 kts 356°
2026-04-25 03:10 33.88926 -117.78310 6009 ft 198 kts 356°
2026-04-25 03:10 33.90302 -117.78340 6011 ft 198 kts 356°
2026-04-25 03:10 33.91685 -117.78368 6020 ft 199 kts 356°
2026-04-25 03:11 33.93055 -117.78396 6013 ft 199 kts 356°
2026-04-25 03:11 33.94443 -117.78426 6013 ft 199 kts 355°
2026-04-25 03:11 33.95826 -117.78455 6014 ft 199 kts 356°
2026-04-25 03:11 33.97208 -117.78484 6023 ft 199 kts 356°
2026-04-25 03:12 33.98601 -117.78527 6025 ft 199 kts 352°
2026-04-25 03:12 33.99888 -117.78995 6023 ft 195 kts 329°
2026-04-25 03:12 34.00939 -117.79997 6022 ft 191 kts 308°
2026-04-25 03:12 34.01608 -117.81356 6023 ft 188 kts 288°
2026-04-25 03:13 34.02054 -117.82833 6026 ft 187 kts 288°
2026-04-25 03:13 34.02512 -117.84300 6026 ft 187 kts 288°
2026-04-25 03:13 34.02966 -117.85766 6027 ft 187 kts 288°
2026-04-25 03:13 34.03419 -117.87232 6026 ft 186 kts 288°
2026-04-25 03:14 34.03874 -117.88704 6025 ft 188 kts 288°
2026-04-25 03:14 34.04332 -117.90192 6024 ft 189 kts 288°
2026-04-25 03:14 34.04790 -117.91676 5991 ft 188 kts 288°
2026-04-25 03:14 34.05247 -117.93157 5991 ft 188 kts 288°
2026-04-25 03:15 34.05697 -117.94619 5992 ft 188 kts 288°
2026-04-25 03:15 34.06151 -117.96096 5993 ft 187 kts 288°
2026-04-25 03:15 34.06607 -117.97570 5992 ft 188 kts 288°
2026-04-25 03:15 34.07066 -117.99056 5991 ft 188 kts 288°
2026-04-25 03:16 34.07519 -118.00539 5994 ft 188 kts 288°
2026-04-25 03:16 34.07972 -118.02016 5993 ft 187 kts 288°
2026-04-25 03:16 34.08426 -118.03491 5993 ft 188 kts 288°
2026-04-25 03:16 34.08879 -118.04961 5995 ft 190 kts 288°
2026-04-25 03:17 34.09339 -118.06462 5993 ft 191 kts 287°
2026-04-25 03:17 34.09799 -118.07965 5985 ft 190 kts 287°
2026-04-25 03:17 34.10241 -118.09402 5979 ft 176 kts 287°
2026-04-25 03:17 34.10654 -118.10751 5973 ft 168 kts 287°
2026-04-25 03:18 34.11053 -118.12057 5977 ft 164 kts 287°
2026-04-25 03:18 34.11447 -118.13346 5985 ft 163 kts 288°
2026-04-25 03:18 34.11837 -118.14622 5987 ft 161 kts 287°
2026-04-25 03:18 34.12222 -118.15876 5987 ft 161 kts 287°
2026-04-25 03:19 34.12610 -118.17144 5987 ft 161 kts 288°
2026-04-25 03:19 34.12998 -118.18419 5989 ft 162 kts 288°
2026-04-25 03:19 34.13389 -118.19699 5991 ft 163 kts 288°
2026-04-25 03:19 34.13778 -118.20971 5994 ft 163 kts 287°
2026-04-25 03:20 34.14170 -118.22254 5994 ft 162 kts 288°
2026-04-25 03:20 34.14559 -118.23532 5998 ft 161 kts 287°
2026-04-25 03:20 34.14947 -118.24802 5998 ft 161 kts 287°
2026-04-25 03:20 34.15254 -118.26091 5994 ft 158 kts 272°
2026-04-25 03:21 34.15073 -118.27399 5999 ft 162 kts 247°
2026-04-25 03:21 34.14431 -118.28493 6006 ft 164 kts 227°
2026-04-25 03:21 34.13658 -118.29484 6007 ft 158 kts 228°
2026-04-25 03:21 34.12929 -118.30442 5937 ft 153 kts 229°
2026-04-25 03:22 34.12242 -118.31435 5687 ft 155 kts 231°
2026-04-25 03:22 34.11579 -118.32471 5351 ft 156 kts 233°
2026-04-25 03:22 34.10920 -118.33537 4880 ft 164 kts 232°
2026-04-25 03:22 34.10238 -118.34592 4430 ft 157 kts 230°
2026-04-25 03:23 34.09546 -118.35591 3900 ft 153 kts 227°
2026-04-25 03:23 34.08846 -118.36533 3391 ft 149 kts 226°
2026-04-25 03:23 34.08120 -118.37426 2822 ft 150 kts 223°
2026-04-25 03:23 34.07367 -118.38291 2311 ft 148 kts 222°
2026-04-25 03:24 34.06649 -118.39146 1856 ft 142 kts 223°
2026-04-25 03:24 34.05973 -118.39967 1455 ft 132 kts 223°
2026-04-25 03:24 34.05349 -118.40683 1219 ft 118 kts 223°
2026-04-25 03:24 34.04799 -118.41340 1057 ft 105 kts 223°
2026-04-25 03:25 34.04283 -118.41948 953 ft 103 kts 223°
2026-04-25 03:25 34.03760 -118.42544 812 ft 102 kts 223°
2026-04-25 03:25 34.03270 -118.43132 637 ft 98 kts 224°
2026-04-25 03:25 34.02786 -118.43695 476 ft 94 kts 224°
2026-04-25 03:26 34.02325 -118.44248 321 ft 94 kts 223°
2026-04-25 03:26 34.01863 -118.44798 179 ft 90 kts 223°
2026-04-25 03:26 34.01472 -118.45271 149 ft 66 kts 225°
2026-04-25 03:26 34.01303 -118.45465 140 ft 14 kts 219°
2026-04-25 03:27 34.01264 -118.45568 135 ft 11 kts 319°
2026-04-25 03:27 34.01302 -118.45576 136 ft 3 kts 40°
2026-04-25 03:27 34.01309 -118.45567 137 ft 0 kts 46°
2026-04-25 03:28 34.01310 -118.45566 137 ft 1 kts 46°
2026-04-25 03:29 34.01321 -118.45552 138 ft 1 kts 46°
2026-04-25 03:29 34.01322 -118.45551 138 ft 0 kts 46°
2026-04-25 03:29 34.01336 -118.45534 139 ft 10 kts 46°
2026-04-25 03:29 34.01396 -118.45464 143 ft 11 kts 44°
2026-04-25 03:30 34.01455 -118.45393 145 ft 13 kts 45°
2026-04-25 03:30 34.01514 -118.45323 149 ft 12 kts 43°
2026-04-25 03:30 34.01576 -118.45250 152 ft 13 kts 43°
2026-04-25 03:30 34.01642 -118.45172 154 ft 14 kts 43°
2026-04-25 03:31 34.01706 -118.45099 157 ft 10 kts 51°